• In Belgium
  • List of Countries
  • For 7 days
  • Water Temperature
  • Satellite Maps
  • Weather Map
  • Weather Widgets
  • user-avatar
    Login

    Hourly Weather Annaba

    Today, 16 July, Monday

    Time Temperature Precipitation Wind Pressure Humidity
    00:00 +33°C° 0 mm 3 mps 759 mmHg 39%
    01:00 +32°C° 0 mm 2 mps 758 mmHg 34%
    02:00 +32°C° 0 mm 2 mps 758 mmHg 35%
    03:00 +32°C° 0 mm 2 mps 758 mmHg 35%
    04:00 +32°C° 0 mm 2 mps 758 mmHg 35%
    05:00 +33°C° 0 mm 3 mps 758 mmHg 40%
    06:00 +33°C° 0 mm 4 mps 758 mmHg 44%
    07:00 +31°C° 0 mm 3 mps 759 mmHg 50%
    08:00 +33°C° 0 mm 4 mps 759 mmHg 47%
    09:00 +34°C° 0 mm 4 mps 759 mmHg 45%
    10:00 +35°C° 0 mm 5 mps 759 mmHg 42%
    11:00 +36°C° 0 mm 6 mps 759 mmHg 35%
    12:00 +38°C° 0 mm 6 mps 759 mmHg 31%
    13:00 +39°C° 0 mm 6 mps 759 mmHg 28%
    14:00 +39°C° 0 mm 6 mps 759 mmHg 30%
    15:00 +38°C° 0 mm 7 mps 759 mmHg 33%
    16:00 +36°C° 0 mm 7 mps 759 mmHg 35%
    17:00 +35°C° 0 mm 6 mps 760 mmHg 39%
    18:00 +33°C° 0 mm 5 mps 760 mmHg 43%
    19:00 +32°C° 0 mm 5 mps 760 mmHg 47%
    20:00 +30°C° 0 mm 4 mps 761 mmHg 49%
    21:00 +29°C° 0 mm 4 mps 761 mmHg 52%
    22:00 +28°C° 0 mm 3 mps 761 mmHg 55%
    23:00 +27°C° 0 mm 3 mps 761 mmHg 53%

    Tomorrow, 17 July, Tuesday

    Time Temperature Precipitation Wind Pressure Humidity
    00:00 +27°C° 0 mm 3 mps 761 mmHg 52%
    01:00 +27°C° 0 mm 3 mps 761 mmHg 50%
    02:00 +26°C° 0 mm 3 mps 761 mmHg 50%
    03:00 +26°C° 0 mm 3 mps 761 mmHg 49%
    04:00 +25°C° 0 mm 3 mps 761 mmHg 48%
    05:00 +26°C° 0 mm 3 mps 761 mmHg 46%
    06:00 +26°C° 0 mm 2 mps 761 mmHg 45%
    07:00 +27°C° 0 mm 2 mps 761 mmHg 43%
    08:00 +29°C° 0 mm 2 mps 761 mmHg 40%
    09:00 +31°C° 0 mm 3 mps 761 mmHg 37%
    10:00 +33°C° 0 mm 3 mps 761 mmHg 34%
    11:00 +35°C° 0 mm 3 mps 761 mmHg 33%
    12:00 +36°C° 0 mm 4 mps 761 mmHg 32%
    13:00 +37°C° 0 mm 4 mps 761 mmHg 30%
    14:00 +37°C° 0 mm 4 mps 761 mmHg 32%
    15:00 +36°C° 0 mm 4 mps 760 mmHg 34%
    16:00 +36°C° 0 mm 5 mps 760 mmHg 35%
    17:00 +35°C° 0 mm 4 mps 760 mmHg 40%
    18:00 +33°C° 0 mm 3 mps 760 mmHg 45%
    19:00 +31°C° 0 mm 3 mps 760 mmHg 50%
    20:00 +30°C° 0 mm 2 mps 760 mmHg 57%
    21:00 +28°C° 0 mm 2 mps 761 mmHg 63%
    22:00 +27°C° 0 mm 1 mps 761 mmHg 70%
    23:00 +27°C° 0 mm 1 mps 761 mmHg 70%

    Day after tomorrow, 18 July, Wednesday

    Time Temperature Precipitation Wind Pressure Humidity
    00:00 +26°C° 0 mm 1 mps 760 mmHg 69%
    01:00 +26°C° 0 mm 1 mps 760 mmHg 69%
    02:00 +26°C° 0 mm 1 mps 760 mmHg 68%
    03:00 +26°C° 0 mm 2 mps 760 mmHg 67%
    04:00 +26°C° 0 mm 2 mps 759 mmHg 66%
    05:00 +27°C° 0 mm 2 mps 759 mmHg 62%
    06:00 +28°C° 0 mm 2 mps 759 mmHg 58%
    07:00 +29°C° 0 mm 2 mps 759 mmHg 55%
    08:00 +31°C° 0 mm 2 mps 759 mmHg 48%
    09:00 +34°C° 0 mm 3 mps 759 mmHg 41%
    10:00 +37°C° 0 mm 3 mps 759 mmHg 34%
    11:00 +38°C° 0 mm 3 mps 759 mmHg 32%
    12:00 +41°C° 0 mm 4 mps 759 mmHg 29%
    13:00 +42°C° 0 mm 4 mps 758 mmHg 26%
    14:00 +42°C° 0 mm 5 mps 758 mmHg 26%
    15:00 +42°C° 0 mm 5 mps 758 mmHg 26%
    16:00 +42°C° 0 mm 6 mps 757 mmHg 27%
    17:00 +41°C° 0 mm 5 mps 757 mmHg 30%
    18:00 +39°C° 0 mm 5 mps 757 mmHg 34%
    19:00 +36°C° 0 mm 4 mps 757 mmHg 37%
    20:00 +35°C° 0 mm 4 mps 757 mmHg 41%
    21:00 +33°C° 0 mm 3 mps 758 mmHg 44%
    22:00 +31°C° 0 mm 3 mps 758 mmHg 48%
    23:00 +31°C° 0 mm 2 mps 758 mmHg 48%

    19 July, Thursday

    Time Temperature Precipitation Wind Pressure Humidity
    00:00 +31°C° 0 mm 2 mps 758 mmHg 48%
    01:00 +30°C° 0 mm 1 mps 758 mmHg 48%
    02:00 +30°C° 0 mm 1 mps 757 mmHg 48%
    03:00 +30°C° 0 mm 1 mps 757 mmHg 48%
    04:00 +30°C° 0 mm 1 mps 757 mmHg 48%
    05:00 +30°C° 0 mm 1 mps 757 mmHg 47%
    06:00 +31°C° 0 mm 1 mps 757 mmHg 45%
    07:00 +32°C° 0 mm 1 mps 757 mmHg 44%
    08:00 +35°C° 0 mm 2 mps 758 mmHg 40%
    09:00 +37°C° 0 mm 2 mps 758 mmHg 36%
    10:00 +38°C° 0 mm 2 mps 758 mmHg 33%
    11:00 +39°C° 0 mm 3 mps 758 mmHg 31%
    12:00 +40°C° 0 mm 3 mps 758 mmHg 30%
    13:00 +42°C° 0 mm 4 mps 757 mmHg 29%
    14:00 +42°C° 0 mm 4 mps 757 mmHg 30%
    15:00 +41°C° 0 mm 4 mps 757 mmHg 31%
    16:00 +41°C° 0 mm 4 mps 757 mmHg 32%
    17:00 +40°C° 0 mm 4 mps 758 mmHg 35%
    18:00 +37°C° 0 mm 3 mps 758 mmHg 38%
    19:00 +36°C° 0 mm 2 mps 758 mmHg 41%
    20:00 +34°C° 0 mm 2 mps 758 mmHg 45%
    21:00 +32°C° 0 mm 2 mps 758 mmHg 49%
    22:00 +30°C° 0 mm 1 mps 759 mmHg 53%
    23:00 +30°C° 0 mm 1 mps 758 mmHg 51%

    20 July, Friday

    Time Temperature Precipitation Wind Pressure Humidity
    00:00 +30°C° 0 mm 1 mps 758 mmHg 50%
    01:00 +30°C° 0 mm 1 mps 758 mmHg 48%
    02:00 +31°C° 0 mm 1 mps 758 mmHg 47%
    03:00 +31°C° 0 mm 1 mps 757 mmHg 45%
    04:00 +31°C° 0 mm 1 mps 757 mmHg 43%
    05:00 +31°C° 0 mm 1 mps 757 mmHg 44%
    06:00 +31°C° 0 mm 2 mps 757 mmHg 45%
    07:00 +32°C° 0 mm 2 mps 757 mmHg 45%
    08:00 +34°C° 0 mm 2 mps 758 mmHg 42%
    09:00 +36°C° 0 mm 2 mps 758 mmHg 38%
    10:00 +37°C° 0 mm 1 mps 758 mmHg 34%
    11:00 +39°C° 0 mm 2 mps 758 mmHg 31%
    12:00 +41°C° 0 mm 2 mps 758 mmHg 27%
    13:00 +44°C° 0 mm 3 mps 757 mmHg 23%
    14:00 +43°C° 0 mm 4 mps 757 mmHg 26%
    15:00 +42°C° 0 mm 5 mps 757 mmHg 28%
    16:00 +41°C° 0 mm 6 mps 757 mmHg 30%
    17:00 +39°C° 0.3 mm 5 mps 758 mmHg 34%
    18:00 +36°C° 0.3 mm 4 mps 758 mmHg 38%
    19:00 +34°C° 0.3 mm 3 mps 758 mmHg 42%
    20:00 +32°C° 0.1 mm 2 mps 759 mmHg 45%
    21:00 +31°C° 0 mm 2 mps 759 mmHg 47%
    22:00 +30°C° 0 mm 2 mps 760 mmHg 50%
    23:00 +30°C° 0.1 mm 2 mps 760 mmHg 51%

    21 July, Saturday

    Time Temperature Precipitation Wind Pressure Humidity
    00:00 +29°C° 0.1 mm 3 mps 760 mmHg 52%
    01:00 +29°C° 0.1 mm 3 mps 760 mmHg 54%
    02:00 +28°C° 0 mm 3 mps 760 mmHg 56%
    03:00 +27°C° 0 mm 3 mps 760 mmHg 58%
    04:00 +27°C° 0 mm 3 mps 760 mmHg 60%
    05:00 +27°C° 0 mm 3 mps 760 mmHg 60%
    06:00 +28°C° 0 mm 3 mps 761 mmHg 61%
    07:00 +28°C° 0 mm 2 mps 761 mmHg 62%
    08:00 +29°C° 0 mm 2 mps 761 mmHg 56%
    09:00 +31°C° 0 mm 3 mps 761 mmHg 51%
    10:00 +33°C° 0 mm 3 mps 761 mmHg 46%
    11:00 +34°C° 0 mm 3 mps 761 mmHg 44%
    12:00 +35°C° 0 mm 4 mps 761 mmHg 43%
    13:00 +36°C° 0 mm 4 mps 761 mmHg 42%
    14:00 +36°C° 0 mm 4 mps 761 mmHg 43%
    15:00 +35°C° 0 mm 4 mps 761 mmHg 44%
    16:00 +35°C° 0 mm 4 mps 761 mmHg 45%
    17:00 +34°C° 0 mm 4 mps 761 mmHg 48%
    18:00 +33°C° 0 mm 3 mps 761 mmHg 52%
    19:00 +31°C° 0 mm 2 mps 761 mmHg 55%
    20:00 +29°C° 0 mm 2 mps 761 mmHg 61%
    21:00 +28°C° 0 mm 2 mps 761 mmHg 66%
    22:00 +27°C° 0 mm 1 mps 762 mmHg 72%
    23:00 +26°C° 0 mm 1 mps 761 mmHg 74%
    Show more